Home > Weather > Göttingen > Past weeks

Flag for Germany Past Weather in Göttingen, Lower Saxony, Germany — Yesterday and Last 2 Weeks

Now
70 °F

Broken clouds.


Feels Like: 70 °F
Forecast: 56 / 66 °F
Wind: 6 mph from Southeast

Location: Kassel / Calden

Current Time: May 31, 2016 at 2:11:23 PM

Latest Report: May 31, 2016 at 1:20 PM


Visibility: N/A

Pressure: 29.86 "Hg

Humidity: 57%

Dew Point: 54 °F

Location of GöttingenLocation

Past Weather in Göttingen — Graph

°F

Göttingen Temperature Yesterday

Maximum temperature yesterday: 70 °F (at 3:20 PM)
Minimum temperature yesterday: 61 °F (at 7:20 AM)
Average temperature yesterday: 65 °F

High & Low Weather Summary for the Past Weeks

 TemperatureHumidityPressure
High79 °F (May 22, 2:20 PM)100% (May 19, 7:50 PM)30.07 "Hg (May 19, 7:50 PM)
Low45 °F (May 17, 7:20 AM)41% (May 22, 6:50 PM)29.59 "Hg (May 30, 8:20 AM)
Average60 °F73%29.91 "Hg
* Reported May 16 12:20 PM — May 31 12:20 PM, Göttingen, Weather by CustomWeather, © 2016

Note: Actual official high and low records may vary slightly from our data, if they occured in-between our weather recording intervals... More about our weather records

Advertising

Göttingen Weather History for the Previous 24 Hours

Scroll right to see more
 ConditionsComfort  
Time TempWeatherWind HumidityBarometerVisibility
12:20 PM
Tue, May 31
68 °FBroken clouds.8 mph56%29.86 "HgN/A
11:50 AM66 °FBroken clouds.8 mph60%29.83 "HgN/A
11:20 AM68 °FBroken clouds.8 mph60%29.83 "HgN/A
10:50 AM66 °FBroken clouds.8 mph64%29.83 "HgN/A
10:20 AM63 °FScattered clouds.9 mph73%29.83 "HgN/A
9:20 AM63 °FScattered clouds.10 mph77%29.83 "HgN/A
8:50 AM63 °FPassing clouds.9 mph77%29.83 "HgN/A
8:20 AM61 °FPassing clouds.8 mph83%29.80 "HgN/A
7:50 AM59 °FSunny.8 mph88%29.80 "Hg10 mi
9:20 PM
Mon, May 30
63 °FScattered clouds.8 mph77%29.71 "HgN/A
8:50 PM63 °FScattered clouds.7 mph77%29.68 "HgN/A
8:20 PM64 °FScattered clouds.6 mph78%29.68 "HgN/A
7:50 PM64 °FScattered clouds.10 mph78%29.68 "HgN/A
7:20 PM66 °FScattered clouds.10 mph73%29.68 "HgN/A
6:50 PM66 °FScattered clouds.8 mph73%29.65 "HgN/A
6:20 PM68 °FScattered clouds.8 mph73%29.65 "HgN/A
5:50 PM68 °FScattered clouds.10 mph73%29.65 "HgN/A
5:20 PM66 °FBroken clouds.10 mph78%29.65 "HgN/A
4:50 PM68 °FBroken clouds.9 mph73%29.62 "HgN/A
4:20 PM66 °FScattered clouds.13 mph83%29.62 "HgN/A
3:50 PM66 °FBroken clouds.14 mph88%29.62 "HgN/A
3:20 PM70 °FBroken clouds.8 mph78%29.62 "HgN/A
2:50 PM68 °FBroken clouds.6 mph88%29.62 "HgN/A
2:20 PM64 °FRain. Broken clouds.6 mph100%29.62 "Hg4 mi
Weather by CustomWeather, © 2016

See weather overviewHow to use our weather pages